Погода в Колмогоровом

Россия / Кемеровская область (Кузбасс)     55°38′20″N   85°39′44″E
темп.,
°C
ветер,
м/с
пор.,
м/с
влажн.,
%
обл.,
%
осадки,
мм/ч
давл.,
гПа
погр.,
м
26 февраля, пт
пт2601:00−21ююз41093100 0.1 10211013
04:00−21юз51190100 0.2 10211314
07:00−23юз51092100 0.3 10241007
10:00−22юз61088100 0.1 10261152
13:00−22юз61189100 0.1 10271052
16:00−22зюз71291100 0.3 10291225
19:00−24зюз51193100 0.4 10311041
22:00−26зюз51192100 0.1 1034793
27 февраля, сб
сб2701:00−27зюз41194100 0.1 1035704
04:00−26юз41095100 0.1 1035658
07:00−26юз41095100 0.3 1036615
10:00−25юз4994100 0.1 1036623
13:00−23юз4791100 0.3 1037702
16:00−22юз4791100 0.1 1037708
19:00−23юз3796100 0.2 1038461
22:00−26юз239896 0.0 103991
28 февраля, вс
вс2801:00−29ююз229986 0.1 104043
04:00−29ююз229998 0.0 104056
07:00−30ю239886 0.0 104152
10:00−27ю25959 0.0 1040181
13:00−21ю359318 0.0 1038312
16:00−19ююв359060 0.0 1036378
19:00−22юв239762 0.0 103530
22:00−21юв249988 0.0 103364
1 марта, пн
пн101:00−17юв389694 0.0 1030250
04:00−14юв4995100 0.3 1026330
07:00−11юв41195100 1.2 1022495
10:00−9ююв41094100 1.1 1018514
13:00−6ююв5994100 2.5 1014772
16:00−4ююв5995100 1.8 1011732
19:000юз61297100 5.1 1010972
22:00−1зюз61295100 1.1 1010847
2 марта, вт
вт201:00−3з51195100 2.0 1011847
04:00−6зюз2797100 0.6 1011335
07:00−5юз2597100 1.1 1011249
10:00−4зюз3796100 0.7 1010473
13:00−3зюз3693100 1.1 1010552
16:00−2з2396100 0.7 1009307
19:00−4ссз2397100 1.7 1008144
22:00−7ссз2496100 0.4 1009139